Weather History for Murray, KY

Change the Weather History Date:

Saturday, February 8, 2014

  Actual Average (KPAH) Record (KPAH)
Temperature  
Mean Temperature 26 °F 37 °F  
Max Temperature 32 °F 47 °F 70 °F (2001)
Min Temperature 21 °F 28 °F -1 °F (1985)
Degree Days  
Heating Degree Days 38 28  
Month to date heating degree days 228  
Since 1 July heating degree days 2801  
Cooling Degree Days 0 0  
Month to date cooling degree days 0  
Year to date cooling degree days 0  
Moisture  
Dew Point 26 °F    
Average Humidity 93    
Maximum Humidity 100    
Minimum Humidity 86    
Precipitation  
Precipitation 0.03 in 0.14 in 1.00 in (1945)
Month to date precipitation 1.13  
Year to date precipitation 4.81  
Snow  
Snow 0.00 in 0.10 in 3.60 in (1980)
Month to date snowfall 1.0  
Since 1 July snowfall 6.3  
Snow Depth -    
Sea Level Pressure  
Sea Level Pressure 30.22 in    
Wind  
Wind Speed 3 mph (SE)    
Max Wind Speed 7 mph    
Max Gust Speed -    
Visibility 5 miles    
Events      
T = Trace of Precipitation, MM = Missing Value Source: NWS Daily Summary

Daily Weather History Graph

Daily Weather History Graph

Search for Another Location

Airport:

Trip Planner

Search our weather history database for the weather conditions in past years. The results will help you decide how hot, cold, wet, or windy it might be!

Date:

Astronomy

Feb. 08, 2014 Rise Set
Actual Time 6:49 AM CST 5:26 PM CST
Civil Twilight 6:22 AM CST 5:53 PM CST
Nautical Twilight 5:51 AM CST 6:24 PM CST
Astronomical Twilight 5:21 AM CST 6:54 PM CST
Moon 12:23 PM CST (2/8) 1:59 AM CST (2/8)
Length of Visible Light 11h 31m
Length of Day
10h 37m
Waxing Gibbous, 69% of the Moon is Illuminated
Feb 8
Waxing Gibbous
Feb 14
Full
Feb 22
Last Quarter
Mar 1
New
Mar 8
First Quarter

Hourly Weather History & Observations

Time (CST) Temp. Windchill Dew Point Humidity Pressure Visibility Wind Dir Wind Speed Gust Speed Precip Events Conditions
12:15 AM 21.2 °F 16.4 °F 19.4 °F 93% 30.32 in 9.0 mi ESE 3.5 mph - N/A   Overcast
12:35 AM 21.2 °F 14.9 °F 19.4 °F 93% 30.31 in 10.0 mi East 4.6 mph - N/A   Overcast
12:55 AM 21.2 °F 14.9 °F 19.4 °F 93% 30.30 in 7.0 mi ESE 4.6 mph - N/A   Overcast
1:15 AM 21.2 °F 14.9 °F 19.4 °F 93% 30.30 in 10.0 mi East 4.6 mph - N/A   Overcast
1:35 AM 21.2 °F 14.9 °F 19.4 °F 93% 30.29 in 8.0 mi ESE 4.6 mph - N/A   Overcast
1:55 AM 21.2 °F 13.6 °F 19.4 °F 93% 30.28 in 8.0 mi East 5.8 mph - N/A   Overcast
2:15 AM 23.0 °F 15.8 °F 19.4 °F 86% 30.27 in 5.0 mi East 5.8 mph - N/A   Overcast
2:35 AM 23.0 °F 17.0 °F 19.4 °F 86% 30.27 in 2.5 mi East 4.6 mph - N/A   Overcast
2:55 AM 23.0 °F 18.4 °F 19.4 °F 86% 30.26 in 4.0 mi East 3.5 mph - N/A   Overcast
3:15 AM 23.0 °F 17.0 °F 19.4 °F 86% 30.26 in 3.0 mi East 4.6 mph - N/A   Overcast
3:35 AM 23.0 °F 17.0 °F 21.2 °F 93% 30.25 in 1.8 mi East 4.6 mph - N/A   Overcast
3:55 AM 23.0 °F - 21.2 °F 93% 30.26 in 3.0 mi Calm Calm - N/A   Overcast
4:15 AM 23.0 °F 18.4 °F 21.2 °F 93% 30.25 in 1.8 mi East 3.5 mph - N/A   Overcast
4:35 AM 23.0 °F 18.4 °F 21.2 °F 93% 30.25 in 4.0 mi East 3.5 mph - N/A   Overcast
4:55 AM 23.0 °F 18.4 °F 21.2 °F 93% 30.25 in 4.0 mi East 3.5 mph - N/A   Mostly Cloudy
5:15 AM 23.0 °F 17.0 °F 21.2 °F 93% 30.25 in 4.0 mi ENE 4.6 mph - N/A   Overcast
5:35 AM 23.0 °F - 21.2 °F 93% 30.25 in 2.5 mi Calm Calm - N/A   Overcast
5:55 AM 23.0 °F 18.4 °F 21.2 °F 93% 30.25 in 3.0 mi ENE 3.5 mph - N/A   Overcast
6:15 AM 23.0 °F 18.4 °F 21.2 °F 93% 30.25 in 5.0 mi NE 3.5 mph - N/A   Overcast
6:35 AM 23.0 °F - 21.2 °F 93% 30.26 in 6.0 mi Calm Calm - N/A   Overcast
6:55 AM 23.0 °F - 21.2 °F 93% 30.26 in 4.0 mi Calm Calm - N/A   Overcast
7:15 AM 23.0 °F 18.4 °F 21.2 °F 93% 30.27 in 1.5 mi NE 3.5 mph - N/A   Mostly Cloudy
7:35 AM 23.0 °F 18.4 °F 21.2 °F 93% 30.27 in 1.5 mi NE 3.5 mph - N/A   Clear
7:55 AM 23.0 °F 17.0 °F 23.0 °F 100% 30.27 in 3.0 mi ENE 4.6 mph - N/A   Clear
8:15 AM 23.0 °F 17.0 °F 23.0 °F 100% 30.27 in 3.0 mi ENE 4.6 mph - 0.01 in   Scattered Clouds
8:35 AM 23.0 °F 17.0 °F 23.0 °F 100% 30.27 in 5.0 mi ENE 4.6 mph - 0.01 in   Partly Cloudy
8:55 AM 24.8 °F 20.5 °F 23.0 °F 93% 30.27 in 6.0 mi ENE 3.5 mph - 0.01 in   Partly Cloudy
9:15 AM 24.8 °F 20.5 °F 23.0 °F 93% 30.27 in 7.0 mi ENE 3.5 mph - N/A   Mostly Cloudy
9:35 AM 26.6 °F 21.2 °F 24.8 °F 93% 30.27 in 7.0 mi ESE 4.6 mph - N/A   Overcast
9:55 AM 26.6 °F - 24.8 °F 93% 30.27 in 8.0 mi Calm Calm - N/A   Overcast
10:15 AM 26.6 °F 22.6 °F 24.8 °F 93% 30.27 in 7.0 mi SSE 3.5 mph - 0.01 in   Overcast
10:35 AM 26.6 °F - 24.8 °F 93% 30.27 in 8.0 mi Calm Calm - 0.01 in   Overcast
10:55 AM 26.6 °F 22.6 °F 24.8 °F 93% 30.27 in 8.0 mi SSW 3.5 mph - 0.02 in   Overcast
11:15 AM 28.4 °F 24.6 °F 26.6 °F 93% 30.27 in 9.0 mi SW 3.5 mph - N/A   Overcast
11:35 AM 28.4 °F 22.2 °F 26.6 °F 93% 30.26 in 8.0 mi SW 5.8 mph - N/A   Overcast
11:55 AM 28.4 °F 24.6 °F 26.6 °F 93% 30.24 in 8.0 mi South 3.5 mph - N/A   Overcast
12:15 PM 28.4 °F 23.3 °F 26.6 °F 93% 30.23 in 8.0 mi South 4.6 mph - N/A   Overcast
12:35 PM 28.4 °F 24.6 °F 26.6 °F 93% 30.21 in 8.0 mi South 3.5 mph - N/A   Overcast
12:55 PM 30.2 °F - 26.6 °F 86% 30.20 in 8.0 mi Calm Calm - N/A   Mostly Cloudy
1:15 PM 30.2 °F 25.4 °F 26.6 °F 86% 30.19 in 9.0 mi South 4.6 mph - N/A   Overcast
1:35 PM 30.2 °F 26.7 °F 28.4 °F 93% 30.17 in 9.0 mi South 3.5 mph - N/A   Overcast
1:55 PM 30.2 °F 26.7 °F 28.4 °F 93% 30.16 in 8.0 mi South 3.5 mph - N/A   Overcast
2:15 PM 30.2 °F 25.4 °F 28.4 °F 93% 30.16 in 8.0 mi SSW 4.6 mph - N/A   Overcast
2:35 PM 32.0 °F 27.5 °F 28.4 °F 87% 30.16 in 7.0 mi South 4.6 mph - N/A   Overcast
2:55 PM 32.0 °F 25.6 °F 28.4 °F 87% 30.16 in 8.0 mi SSW 6.9 mph - N/A   Overcast
3:15 PM 32.0 °F 26.4 °F 28.4 °F 87% 30.18 in 8.0 mi SW 5.8 mph - N/A   Overcast
3:35 PM 32.0 °F 26.4 °F 28.4 °F 87% 30.18 in 8.0 mi SW 5.8 mph - N/A   Overcast
3:55 PM 32.0 °F 27.5 °F 28.4 °F 87% 30.18 in 7.0 mi SW 4.6 mph - N/A   Overcast
4:15 PM 32.0 °F 27.5 °F 28.4 °F 87% 30.17 in 7.0 mi SSW 4.6 mph - N/A   Overcast
4:35 PM 32.0 °F 28.7 °F 28.4 °F 87% 30.16 in 5.0 mi SW 3.5 mph - N/A   Overcast
4:55 PM 32.0 °F 28.7 °F 30.2 °F 93% 30.16 in 5.0 mi WSW 3.5 mph - N/A   Overcast
5:15 PM 32.0 °F - 30.2 °F 93% 30.16 in 5.0 mi Calm Calm - N/A   Overcast
5:35 PM 32.0 °F 28.7 °F 30.2 °F 93% 30.17 in 6.0 mi SW 3.5 mph - N/A   Overcast
5:55 PM 32.0 °F - 30.2 °F 93% 30.18 in 8.0 mi Calm Calm - N/A   Overcast
6:15 PM 32.0 °F - 30.2 °F 93% 30.18 in 7.0 mi Calm Calm - N/A   Overcast
6:35 PM 32.0 °F - 30.2 °F 93% 30.18 in 5.0 mi Calm Calm - N/A   Overcast
6:55 PM 32.0 °F - 30.2 °F 93% 30.18 in 5.0 mi Calm Calm - N/A   Overcast
7:15 PM 32.0 °F - 30.2 °F 93% 30.16 in 4.0 mi Calm Calm - N/A   Overcast
7:35 PM 32.0 °F 28.7 °F 30.2 °F 93% 30.15 in 4.0 mi SE 3.5 mph - N/A   Overcast
7:55 PM 32.0 °F - 30.2 °F 93% 30.15 in 4.0 mi Calm Calm - N/A   Overcast
8:15 PM 32.0 °F - 30.2 °F 93% 30.15 in 4.0 mi Calm Calm - N/A   Overcast
8:35 PM 32.0 °F - 30.2 °F 93% 30.15 in 4.0 mi Calm Calm - N/A   Overcast
8:55 PM 32.0 °F - 30.2 °F 93% 30.15 in 5.0 mi Calm Calm - N/A   Overcast
9:15 PM 32.0 °F - 32.0 °F 100% 30.16 in 3.0 mi Calm Calm - N/A   Overcast
9:35 PM 32.0 °F - 32.0 °F 100% 30.16 in 3.0 mi Calm Calm - N/A   Overcast
9:55 PM 32.0 °F - 32.0 °F 100% 30.15 in 2.5 mi Calm Calm - N/A   Overcast
10:15 PM 32.0 °F - 32.0 °F 100% 30.15 in 2.5 mi Calm Calm - N/A   Overcast
10:35 PM 32.0 °F - 32.0 °F 100% 30.16 in 2.5 mi Calm Calm - N/A   Overcast
10:55 PM 32.0 °F - 32.0 °F 100% 30.16 in 2.0 mi Calm Calm - N/A   Overcast
11:15 PM 32.0 °F - 32.0 °F 100% 30.15 in 1.5 mi Calm Calm - N/A   Overcast
11:35 PM 32.0 °F - 32.0 °F 100% 30.16 in 1.8 mi Calm Calm - N/A   Overcast
11:55 PM 32.0 °F - 32.0 °F 100% 30.16 in 2.0 mi Calm Calm - N/A   Overcast